Location: Cantaing
(50.1487°N, 3.1675°E)
Time: 19:37:09
(UTC+00:00)

Cosmos 1862 Rocket - Pass Details

Date: 14 January 2026
Orbit: 596 x 627 km, 82.5° (Epoch: 13 February)

Event Time Altitude Azimuth Distance (km) Brightness Sun altitude
Rises 06:36:08 0° 345° (NNW) 2,890 6.6 -10.1°
Reaches altitude 10° 06:38:25 10° 341° (NNW) 1,975 5.8 -9.8°
Maximum altitude 06:42:38 51° 266° (W) 770 3.7 -9.1°
Drops below altitude 10° 06:46:48 10° 191° (S) 1,941 6.3 -8.5°
Sets 06:49:02 0° 186° (S) 2,835 7.2 -8.2°
